Time,TemperatureF,DewpointF,PressureIn,WindDirection,WindDirectionDegrees,WindSpeedMPH,WindSpeedGustMPH,Humidity,HourlyPrecipIn,Conditions,Clouds,dailyrainin,SoftwareType,DateUTC
2015-01-24 00:00:00,18.3,10.0,30.62,WSW,254,1.0,2.0,71,0.00,,,0.00,weatherlink.com 1.10,2015-01-24 07:00:00,
2015-01-24 00:15:00,16.7,9.0,30.64,WSW,254,2.0,5.0,73,0.00,,,0.00,weatherlink.com 1.10,2015-01-24 07:15:00,
2015-01-24 00:31:00,17.0,9.0,30.66,WSW,254,0.0,3.0,71,0.00,,,0.00,weatherlink.com 1.10,2015-01-24 07:31:00,
2015-01-24 00:46:00,17.2,11.0,30.65,SSW,198,0.0,5.0,75,0.00,,,0.00,weatherlink.com 1.10,2015-01-24 07:46:00,
2015-01-24 01:01:00,16.9,10.0,30.64,WSW,247,2.0,4.0,73,0.00,,,0.00,weatherlink.com 1.10,2015-01-24 08:01:00,
2015-01-24 01:16:00,21.1,12.0,30.64,WSW,247,5.0,6.0,67,0.00,,,0.00,weatherlink.com 1.10,2015-01-24 08:16:00,
2015-01-24 01:31:00,23.0,14.0,30.63,SW,218,5.0,9.0,67,0.00,,,0.00,weatherlink.com 1.10,2015-01-24 08:31:00,
2015-01-24 01:46:00,24.4,14.0,30.62,SSW,204,5.0,8.0,64,0.00,,,0.00,weatherlink.com 1.10,2015-01-24 08:46:00,
2015-01-24 02:01:00,24.2,14.0,30.61,West,276,4.0,6.0,64,0.00,,,0.00,weatherlink.com 1.10,2015-01-24 09:01:00,
2015-01-24 02:16:00,24.5,13.0,30.60,WSW,255,0.0,5.0,62,0.00,,,0.00,weatherlink.com 1.10,2015-01-24 09:16:00,
2015-01-24 02:31:00,22.9,13.0,30.60,ENE,65,0.0,8.0,66,0.00,,,0.00,weatherlink.com 1.10,2015-01-24 09:31:00,
2015-01-24 02:46:00,21.0,13.0,30.61,SSW,206,2.0,4.0,71,0.00,,,0.00,weatherlink.com 1.10,2015-01-24 09:46:00,
2015-01-24 03:01:00,20.6,13.0,30.63,East,97,6.0,9.0,71,0.00,,,0.00,weatherlink.com 1.10,2015-01-24 10:01:00,
2015-01-24 03:16:00,18.9,12.0,30.62,East,100,3.0,5.0,73,0.00,,,0.00,weatherlink.com 1.10,2015-01-24 10:16:00,
2015-01-24 03:31:00,19.7,12.0,30.60,WSW,239,2.0,7.0,71,0.00,,,0.00,weatherlink.com 1.10,2015-01-24 10:31:00,
2015-01-24 03:46:00,23.2,13.0,30.58,WSW,239,0.0,7.0,65,0.00,,,0.00,weatherlink.com 1.10,2015-01-24 10:46:00,
2015-01-24 04:02:00,25.3,13.0,30.56,West,272,1.0,4.0,61,0.00,,,0.00,weatherlink.com 1.10,2015-01-24 11:02:00,
2015-01-24 04:16:00,25.0,13.0,30.54,WNW,301,4.0,8.0,61,0.00,,,0.00,weatherlink.com 1.10,2015-01-24 11:16:00,
2015-01-24 04:31:00,26.4,13.0,30.54,WSW,253,0.0,4.0,57,0.00,,,0.00,weatherlink.com 1.10,2015-01-24 11:31:00,
2015-01-24 04:46:00,26.1,13.0,30.55,SW,221,4.0,5.0,58,0.00,,,0.00,weatherlink.com 1.10,2015-01-24 11:46:00,
2015-01-24 05:01:00,26.3,12.0,30.56,SSW,207,3.0,6.0,56,0.00,,,0.00,weatherlink.com 1.10,2015-01-24 12:01:00,
2015-01-24 05:16:00,26.7,13.0,30.55,WSW,246,6.0,7.0,57,0.00,,,0.00,weatherlink.com 1.10,2015-01-24 12:16:00,
2015-01-24 05:31:00,28.2,13.0,30.56,WSW,246,4.0,5.0,54,0.00,,,0.00,weatherlink.com 1.10,2015-01-24 12:31:00,
2015-01-24 05:46:00,29.0,15.0,30.56,WNW,285,3.0,4.0,56,0.00,,,0.00,weatherlink.com 1.10,2015-01-24 12:46:00,
2015-01-24 06:02:00,28.5,15.0,30.56,WNW,285,3.0,4.0,57,0.00,,,0.00,weatherlink.com 1.10,2015-01-24 13:02:00,
2015-01-24 06:16:00,33.7,13.0,30.55,WSW,253,4.0,7.0,43,0.00,,,0.00,weatherlink.com 1.10,2015-01-24 13:16:00,
2015-01-24 06:31:00,35.6,14.0,30.55,SW,224,3.0,8.0,41,0.00,,,0.00,weatherlink.com 1.10,2015-01-24 13:31:00,
2015-01-24 06:46:00,36.9,15.0,30.55,WNW,289,6.0,11.0,40,0.00,,,0.00,weatherlink.com 1.10,2015-01-24 13:46:00,
2015-01-24 07:01:00,33.7,17.0,30.55,East,81,0.0,11.0,51,0.00,,,0.00,weatherlink.com 1.10,2015-01-24 14:01:00,
2015-01-24 07:16:00,27.6,15.0,30.55,East,81,6.0,13.0,60,0.00,,,0.00,weatherlink.com 1.10,2015-01-24 14:16:00,
2015-01-24 07:31:00,26.7,16.0,30.55,ENE,78,0.0,3.0,64,0.00,,,0.00,weatherlink.com 1.10,2015-01-24 14:31:00,
2015-01-24 07:46:00,27.0,17.0,30.57,South,174,1.0,4.0,65,0.00,,,0.00,weatherlink.com 1.10,2015-01-24 14:46:00,
2015-01-24 08:01:00,28.4,17.0,30.56,West,265,4.0,5.0,63,0.00,,,0.00,weatherlink.com 1.10,2015-01-24 15:01:00,
2015-01-24 08:16:00,30.4,19.0,30.55,SW,216,0.0,5.0,62,0.00,,,0.00,weatherlink.com 1.10,2015-01-24 15:16:00,
2015-01-24 08:31:00,32.7,18.0,30.55,SW,216,0.0,3.0,56,0.00,,,0.00,weatherlink.com 1.10,2015-01-24 15:31:00,
2015-01-24 08:46:00,32.8,19.0,30.55,SW,216,2.0,3.0,58,0.00,,,0.00,weatherlink.com 1.10,2015-01-24 15:46:00,
2015-01-24 09:01:00,32.7,20.0,30.55,SW,216,1.0,2.0,60,0.00,,,0.00,weatherlink.com 1.10,2015-01-24 16:01:00,
2015-01-24 09:17:00,32.5,21.0,30.56,SW,216,0.0,3.0,63,0.00,,,0.00,weatherlink.com 1.10,2015-01-24 16:17:00,
2015-01-24 09:32:00,33.1,20.0,30.55,SW,216,0.0,2.0,59,0.00,,,0.00,weatherlink.com 1.10,2015-01-24 16:32:00,
2015-01-24 09:47:00,34.9,21.0,30.54,SW,216,0.0,3.0,58,0.00,,,0.00,weatherlink.com 1.10,2015-01-24 16:47:00,
2015-01-24 10:02:00,35.9,23.0,30.54,SW,216,1.0,2.0,59,0.00,,,0.00,weatherlink.com 1.10,2015-01-24 17:02:00,
2015-01-24 10:17:00,37.0,23.0,30.53,SW,216,0.0,1.0,57,0.00,,,0.00,weatherlink.com 1.10,2015-01-24 17:17:00,
2015-01-24 10:32:00,38.3,24.0,30.53,SW,216,0.0,2.0,56,0.00,,,0.00,weatherlink.com 1.10,2015-01-24 17:32:00,
2015-01-24 10:47:00,39.3,24.0,30.52,SW,216,0.0,1.0,54,0.00,,,0.00,weatherlink.com 1.10,2015-01-24 17:47:00,
2015-01-24 11:02:00,40.5,25.0,30.52,NW,324,0.0,5.0,55,0.00,,,0.00,weatherlink.com 1.10,2015-01-24 18:02:00,
2015-01-24 11:17:00,42.8,25.0,30.52,NW,324,0.0,0.0,49,0.00,,,0.00,weatherlink.com 1.10,2015-01-24 18:17:00,
2015-01-24 11:32:00,42.3,25.0,30.51,NW,325,1.0,3.0,51,0.00,,,0.00,weatherlink.com 1.10,2015-01-24 18:32:00,
2015-01-24 11:47:00,40.9,26.0,30.50,East,88,0.0,8.0,55,0.00,,,0.00,weatherlink.com 1.10,2015-01-24 18:47:00,
2015-01-24 12:02:00,42.1,26.0,30.50,East,88,0.0,3.0,53,0.00,,,0.00,weatherlink.com 1.10,2015-01-24 19:02:00,
2015-01-24 12:17:00,43.2,26.0,30.48,SSW,197,5.0,6.0,50,0.00,,,0.00,weatherlink.com 1.10,2015-01-24 19:17:00,
2015-01-24 12:32:00,44.2,27.0,30.48,East,90,6.0,8.0,51,0.00,,,0.00,weatherlink.com 1.10,2015-01-24 19:32:00,
2015-01-24 12:47:00,41.2,26.0,30.47,ENE,62,3.0,11.0,56,0.00,,,0.00,weatherlink.com 1.10,2015-01-24 19:47:00,
2015-01-24 13:02:00,42.6,27.0,30.47,SW,233,6.0,6.0,54,0.00,,,0.00,weatherlink.com 1.10,2015-01-24 20:02:00,
2015-01-24 13:17:00,43.2,28.0,30.46,SW,234,0.0,5.0,56,0.00,,,0.00,weatherlink.com 1.10,2015-01-24 20:17:00,
2015-01-24 13:32:00,43.5,29.0,30.46,SW,234,2.0,4.0,57,0.00,,,0.00,weatherlink.com 1.10,2015-01-24 20:32:00,
2015-01-24 13:47:00,44.8,29.0,30.46,SW,234,0.0,1.0,54,0.00,,,0.00,weatherlink.com 1.10,2015-01-24 20:47:00,
2015-01-24 14:02:00,44.9,29.0,30.46,SW,234,1.0,4.0,54,0.00,,,0.00,weatherlink.com 1.10,2015-01-24 21:02:00,
2015-01-24 14:17:00,44.3,28.0,30.45,West,273,7.0,11.0,54,0.00,,,0.00,weatherlink.com 1.10,2015-01-24 21:17:00,
2015-01-24 14:32:00,44.2,29.0,30.46,West,259,8.0,14.0,56,0.00,,,0.00,weatherlink.com 1.10,2015-01-24 21:32:00,
2015-01-24 14:47:00,45.4,29.0,30.46,NNW,341,5.0,14.0,52,0.00,,,0.00,weatherlink.com 1.10,2015-01-24 21:47:00,
2015-01-24 15:02:00,46.2,28.0,30.46,WNW,287,8.0,18.0,49,0.00,,,0.00,weatherlink.com 1.10,2015-01-24 22:02:00,
2015-01-24 15:17:00,47.1,28.0,30.47,NW,307,12.0,21.0,47,0.00,,,0.00,weatherlink.com 1.10,2015-01-24 22:17:00,
2015-01-24 15:33:00,46.2,28.0,30.46,WNW,283,7.0,15.0,49,0.00,,,0.00,weatherlink.com 1.10,2015-01-24 22:33:00,
2015-01-24 15:47:00,47.7,26.0,30.47,WNW,299,14.0,23.0,43,0.00,,,0.00,weatherlink.com 1.10,2015-01-24 22:47:00,
2015-01-24 16:02:00,47.3,26.0,30.47,West,266,11.0,20.0,43,0.00,,,0.00,weatherlink.com 1.10,2015-01-24 23:02:00,
2015-01-24 16:17:00,46.8,27.0,30.47,WNW,293,8.0,20.0,46,0.00,,,0.00,weatherlink.com 1.10,2015-01-24 23:17:00,
2015-01-24 16:32:00,45.1,28.0,30.48,WNW,283,5.0,12.0,51,0.00,,,0.00,weatherlink.com 1.10,2015-01-24 23:32:00,
2015-01-24 16:48:00,46.2,26.0,30.48,West,278,8.0,16.0,45,0.00,,,0.00,weatherlink.com 1.10,2015-01-24 23:48:00,
2015-01-24 17:02:00,46.7,25.0,30.48,WNW,290,11.0,21.0,42,0.00,,,0.00,weatherlink.com 1.10,2015-01-25 00:02:00,
2015-01-24 17:17:00,46.2,24.0,30.48,WNW,287,14.0,22.0,42,0.00,,,0.00,weatherlink.com 1.10,2015-01-25 00:17:00,
2015-01-24 17:32:00,46.7,25.0,30.48,NW,317,9.0,23.0,43,0.00,,,0.00,weatherlink.com 1.10,2015-01-25 00:32:00,
2015-01-24 17:47:00,45.4,26.0,30.48,WNW,291,7.0,18.0,47,0.00,,,0.00,weatherlink.com 1.10,2015-01-25 00:47:00,
2015-01-24 18:02:00,45.1,27.0,30.48,WNW,291,6.0,12.0,49,0.00,,,0.00,weatherlink.com 1.10,2015-01-25 01:02:00,
2015-01-24 18:17:00,43.3,27.0,30.49,WNW,290,6.0,8.0,52,0.00,,,0.00,weatherlink.com 1.10,2015-01-25 01:17:00,
2015-01-24 18:32:00,44.2,27.0,30.49,NNW,339,0.0,12.0,51,0.00,,,0.00,weatherlink.com 1.10,2015-01-25 01:32:00,
2015-01-24 18:47:00,44.5,25.0,30.50,WNW,287,7.0,13.0,47,0.00,,,0.00,weatherlink.com 1.10,2015-01-25 01:47:00,
2015-01-24 19:02:00,44.1,24.0,30.50,WNW,293,9.0,12.0,46,0.00,,,0.00,weatherlink.com 1.10,2015-01-25 02:02:00,
2015-01-24 19:17:00,45.7,23.0,30.50,West,272,16.0,21.0,41,0.00,,,0.00,weatherlink.com 1.10,2015-01-25 02:17:00,
2015-01-24 19:32:00,45.1,24.0,30.49,WNW,298,3.0,16.0,44,0.00,,,0.00,weatherlink.com 1.10,2015-01-25 02:32:00,
2015-01-24 19:47:00,44.8,24.0,30.49,West,265,4.0,14.0,44,0.00,,,0.00,weatherlink.com 1.10,2015-01-25 02:47:00,
2015-01-24 20:02:00,43.8,25.0,30.48,WNW,290,5.0,9.0,47,0.00,,,0.00,weatherlink.com 1.10,2015-01-25 03:02:00,
2015-01-24 20:17:00,42.6,25.0,30.48,NNW,329,1.0,5.0,51,0.00,,,0.00,weatherlink.com 1.10,2015-01-25 03:17:00,
2015-01-24 20:32:00,41.5,24.0,30.49,NNE,21,1.0,4.0,51,0.00,,,0.00,weatherlink.com 1.10,2015-01-25 03:32:00,
2015-01-24 20:47:00,41.9,25.0,30.49,WNW,285,0.0,8.0,51,0.00,,,0.00,weatherlink.com 1.10,2015-01-25 03:47:00,
2015-01-24 21:02:00,39.6,24.0,30.49,WSW,255,3.0,5.0,55,0.00,,,0.00,weatherlink.com 1.10,2015-01-25 04:02:00,
2015-01-24 21:17:00,37.8,25.0,30.49,SW,214,3.0,7.0,61,0.00,,,0.00,weatherlink.com 1.10,2015-01-25 04:17:00,
2015-01-24 21:32:00,37.8,24.0,30.49,SSW,208,2.0,2.0,59,0.00,,,0.00,weatherlink.com 1.10,2015-01-25 04:32:00,
2015-01-24 21:47:00,37.0,25.0,30.49,SW,224,0.0,4.0,62,0.00,,,0.00,weatherlink.com 1.10,2015-01-25 04:47:00,
2015-01-24 22:02:00,34.9,24.0,30.49,WSW,241,0.0,5.0,65,0.00,,,0.00,weatherlink.com 1.10,2015-01-25 05:02:00,